Location: *
(50.5492°N, 7.7469°E)
Time: 07:24:38
(UTC+00:00)

SPOT 3 Rocket - Pass Details

Date: 21 October 2019
Orbit: 779 x 794 km, 98.8° (Epoch: 18 November)

Event Time Altitude Azimuth Distance (km) Brightness Sun altitude
Exits shadow 18:26:38 39° 89° (E) 1,170 3.9 -19.9°
Maximum altitude 18:27:26 42° 65° (ENE) 1,119 3.9 -20.0°
Drops below altitude 10° 18:32:19 10° 356° (N) 2,371 6.2 -20.8°
Sets 18:34:45 0° 350° (N) 3,307 7.0 -21.2°
